Вернуться в каталог

COSMOS 2251 DEB

АктивенLEO
NORAD 34420·DEBRIS·🇷🇺 Russia

Запущен Jun 16, 1993 с Plesetsk Cosmodrome

Loading…

Ближайшие Пролёты (ближайшие 24 часа)

TLE

СвежийSource: Space-Track

Эпоха: Sep 14, 2026, 05:40 UTC

1 34420U 93036RM  26257.23679990  .00000497  00000-0  84098-4 0  9994
2 34420  74.0314 290.8226 0105646 340.1291 137.7754 14.68774088938147

Отслеживайте COSMOS 2251 DEB в реальном времени с AllMySat

Download on the App Store